Home > Weather > Nordhorn > Past weeks

Flag for Germany Past Weather in Nordhorn, Lower Saxony, Germany — Yesterday and Last 2 Weeks

Now
61 °F

Low clouds.


Feels Like: 61 °F
Forecast: 57 / 67 °F
Wind: 3 mph from Southwest

Location: Twenthe

Current Time: Jul 29, 2016 at 8:02:20 AM

Latest Report: Jul 29, 2016 at 6:00 AM


Visibility: 7 mi

Pressure: 29.89 "Hg

Humidity: 92%

Dew Point: 58 °F

Location of NordhornLocation

Past Weather in Nordhorn — Graph

°F

Nordhorn Temperature Yesterday

Maximum temperature yesterday: 72 °F (at 6:00 PM)
Minimum temperature yesterday: 57 °F (at 5:00 AM)
Average temperature yesterday: 63 °F

High & Low Weather Summary for the Past Weeks

 TemperatureHumidityPressure
High92 °F (Jul 20, 4:00 PM)100% (Jul 18, 2:00 AM)30.27 "Hg (Jul 18, 2:00 AM)
Low49 °F (Jul 14, 6:00 AM)23% (Jul 19, 4:00 PM)29.83 "Hg (Jul 20, 7:00 PM)
Average67 °F79%30.09 "Hg
* Reported Jul 14 6:00 AM — Jul 29 6:00 AM, Nordhorn, Weather by CustomWeather, © 2016

Note: Actual official high and low records may vary slightly from our data, if they occured in-between our weather recording intervals... More about our weather records

Advertising

Nordhorn Weather History for the Previous 24 Hours

Scroll right to see more
 ConditionsComfort  
Time TempWeatherWind HumidityBarometerVisibility
6:00 AM
Fri, Jul 29
61 °FLow clouds.3 mph92%29.89 "Hg7 mi
5:00 AM61 °FOvercast.2 mph92%29.89 "Hg8 mi
4:00 AM61 °FOvercast.3 mph88%29.90 "Hg8 mi
2:00 AM62 °FOvercast.2 mph91%29.91 "Hg7 mi
11:00 PM
Thu, Jul 28
62 °FFog.1 mph98%29.91 "Hg3 mi
10:00 PM62 °FOvercast.No wind99%29.92 "Hg3 mi
8:00 PM68 °FOvercast.1 mph86%29.90 "Hg7 mi
6:00 PM72 °FFog.3 mph76%29.90 "Hg7 mi
5:00 PM71 °FOvercast.5 mph79%29.91 "Hg12 mi
3:00 PM68 °FLow clouds.2 mph92%29.94 "Hg6 mi
2:00 PM66 °FLight rain. Low clouds.1 mph95%29.96 "Hg1 mi
1:00 PM68 °FOvercast.1 mph84%29.96 "Hg8 mi
12:00 PM67 °FLow clouds.2 mph91%29.97 "Hg6 mi
11:00 AM64 °FLow clouds.3 mph96%29.98 "Hg3 mi
10:00 AM62 °FRain. Low clouds.2 mph99%29.98 "Hg3 mi
9:00 AM62 °FLow clouds.2 mph99%29.98 "Hg4 mi
8:00 AM61 °FFog.1 mph100%29.99 "Hg4 mi
Weather by CustomWeather, © 2016

See weather overviewHow to use our weather pages